Location: Fauquembergues
(50.6005°N, 2.0987°E)
Time: 04:22:22
(UTC+00:00)

Cosmos 1656 - Pass Details

Date: 14 July 2020
Orbit: 800 x 848 km, 71.1° (Epoch: 06 August)

Event Time Altitude Azimuth Distance (km) Brightness Sun altitude
Rises 00:42:59 0° 331° (NNW) 3,321 7.6 -17.1°
Reaches altitude 10° 00:45:26 10° 335° (NNW) 2,386 6.8 -17.0°
Maximum altitude 00:50:50 64° 57° (ENE) 888 4.0 -16.8°
Drops below altitude 10° 00:56:14 10° 139° (SE) 2,381 5.7 -16.6°
Enters shadow 00:56:29 - 139° (SE) 2,477 5.8 -16.6°
